Time,TemperatureF,DewpointF,PressureIn,WindDirection,WindDirectionDegrees,WindSpeedMPH,WindSpeedGustMPH,Humidity,HourlyPrecipIn,Conditions,Clouds,dailyrainin,SoftwareType,DateUTC
2013-05-14 00:06:00,41.6,28.7,29.94,West,268,6.0,16.0,60,0.00,,,0.00,Wunderground v.1.15,2013-05-14 04:06:00,
2013-05-14 00:36:00,41.3,28.9,29.94,West,275,5.0,11.0,61,0.00,,,0.00,Wunderground v.1.15,2013-05-14 04:36:00,
2013-05-14 00:46:00,41.2,29.2,29.92,WNW,285,4.0,11.0,62,0.00,,,0.00,Wunderground v.1.15,2013-05-14 04:46:00,
2013-05-14 00:56:00,40.8,29.2,29.92,NW,306,2.0,11.0,63,0.00,,,0.00,Wunderground v.1.15,2013-05-14 04:56:00,
2013-05-14 02:06:00,38.5,27.4,29.93,WNW,287,1.0,1.0,64,0.00,,,0.00,Wunderground v.1.15,2013-05-14 06:06:00,
2013-05-14 02:16:00,37.5,29.3,29.94,WNW,287,0.0,6.0,72,0.00,,,0.00,Wunderground v.1.15,2013-05-14 06:16:00,
2013-05-14 02:36:00,37.0,28.1,29.94,WNW,287,0.0,3.0,70,0.00,,,0.00,Wunderground v.1.15,2013-05-14 06:36:00,
2013-05-14 02:46:00,37.0,28.1,29.94,WNW,287,0.0,3.0,70,0.00,,,0.00,Wunderground v.1.15,2013-05-14 06:46:00,
2013-05-14 02:56:00,36.5,29.0,29.94,WNW,287,0.0,3.0,74,0.00,,,0.00,Wunderground v.1.15,2013-05-14 06:56:00,
2013-05-14 03:26:00,35.6,28.8,29.94,WNW,287,0.0,2.0,76,0.00,,,0.00,Wunderground v.1.15,2013-05-14 07:26:00,
2013-05-14 04:26:00,34.4,28.6,29.94,WNW,287,0.0,0.0,79,0.00,,,0.00,Wunderground v.1.15,2013-05-14 08:26:00,
2013-05-14 05:06:00,35.9,24.9,29.95,WNW,287,1.0,6.0,64,0.00,,,0.00,Wunderground v.1.15,2013-05-14 09:06:00,
2013-05-14 05:36:00,38.0,24.1,29.95,West,278,2.0,2.0,57,0.00,,,0.00,Wunderground v.1.15,2013-05-14 09:36:00,
2013-05-14 06:06:00,38.3,24.8,29.95,NW,310,1.0,1.0,58,0.00,,,0.00,Wunderground v.1.15,2013-05-14 10:06:00,
2013-05-14 07:06:00,40.9,26.4,29.95,West,279,0.0,4.0,56,0.00,,,0.00,Wunderground v.1.15,2013-05-14 11:06:00,
2013-05-14 07:16:00,42.1,24.3,29.95,South,186,1.0,4.0,49,0.00,,,0.00,Wunderground v.1.15,2013-05-14 11:16:00,
2013-05-14 07:36:00,44.9,26.4,29.95,ESE,118,2.0,2.0,48,0.00,,,0.00,Wunderground v.1.15,2013-05-14 11:36:00,
2013-05-14 07:46:00,44.5,27.0,29.95,SE,131,2.0,5.0,50,0.00,,,0.00,Wunderground v.1.15,2013-05-14 11:46:00,
2013-05-14 08:06:00,45.2,23.4,29.95,West,281,3.0,15.0,42,0.00,,,0.00,Wunderground v.1.15,2013-05-14 12:06:00,
2013-05-14 08:16:00,44.8,21.3,29.95,NNW,347,6.0,15.0,39,0.00,,,0.00,Wunderground v.1.15,2013-05-14 12:16:00,
2013-05-14 08:26:00,44.2,22.0,29.95,NW,304,10.0,15.0,41,0.00,,,0.00,Wunderground v.1.15,2013-05-14 12:26:00,
2013-05-14 09:06:00,45.5,21.3,29.94,WSW,255,8.0,8.0,38,0.00,,,0.00,Wunderground v.1.15,2013-05-14 13:06:00,
2013-05-14 09:16:00,47.4,22.4,29.94,NNW,332,5.0,23.0,37,0.00,,,0.00,Wunderground v.1.15,2013-05-14 13:16:00,
2013-05-14 09:26:00,47.4,18.2,29.94,North,5,5.0,5.0,31,0.00,,,0.00,Wunderground v.1.15,2013-05-14 13:26:00,
2013-05-14 09:36:00,49.1,21.9,29.94,ESE,114,3.0,18.0,34,0.00,,,0.00,Wunderground v.1.15,2013-05-14 13:36:00,
2013-05-14 09:46:00,49.8,16.2,29.93,ENE,74,4.0,18.0,26,0.00,,,0.00,Wunderground v.1.15,2013-05-14 13:46:00,
2013-05-14 09:56:00,50.4,19.3,29.93,ESE,103,4.0,18.0,29,0.00,,,0.00,Wunderground v.1.15,2013-05-14 13:56:00,
2013-05-14 10:06:00,50.8,18.0,29.93,ENE,78,4.0,12.0,27,0.00,,,0.00,Wunderground v.1.15,2013-05-14 14:06:00,
2013-05-14 10:16:00,51.4,19.3,29.92,SE,140,3.0,12.0,28,0.00,,,0.00,Wunderground v.1.15,2013-05-14 14:16:00,
2013-05-14 10:26:00,51.4,17.6,29.92,East,96,4.0,12.0,26,0.00,,,0.00,Wunderground v.1.15,2013-05-14 14:26:00,
2013-05-14 11:06:00,51.1,23.0,29.92,ESE,113,3.0,3.0,33,0.00,,,0.00,Wunderground v.1.15,2013-05-14 15:06:00,
2013-05-14 11:16:00,52.3,18.4,29.92,North,351,2.0,11.0,26,0.00,,,0.00,Wunderground v.1.15,2013-05-14 15:16:00,
2013-05-14 11:26:00,50.7,17.9,29.92,NNE,19,3.0,11.0,27,0.00,,,0.00,Wunderground v.1.15,2013-05-14 15:26:00,
2013-05-14 11:36:00,50.1,19.0,29.92,North,5,5.0,15.0,29,0.00,,,0.00,Wunderground v.1.15,2013-05-14 15:36:00,
2013-05-14 11:46:00,50.2,17.5,29.92,North,9,4.0,15.0,27,0.00,,,0.00,Wunderground v.1.15,2013-05-14 15:46:00,
2013-05-14 11:56:00,51.6,19.5,29.92,ENE,71,3.0,3.0,28,0.00,,,0.00,Wunderground v.1.15,2013-05-14 15:56:00,
2013-05-14 12:36:00,52.0,19.9,29.92,NW,321,3.0,3.0,28,0.00,,,0.00,Wunderground v.1.15,2013-05-14 16:36:00,
2013-05-14 12:46:00,53.6,20.4,29.92,ESE,111,2.0,2.0,27,0.00,,,0.00,Wunderground v.1.15,2013-05-14 16:46:00,
2013-05-14 13:06:00,54.8,21.4,29.91,North,360,3.0,3.0,27,0.00,,,0.00,Wunderground v.1.15,2013-05-14 17:06:00,
2013-05-14 13:26:00,54.7,20.4,29.92,ENE,75,2.0,2.0,26,0.00,,,0.00,Wunderground v.1.15,2013-05-14 17:26:00,
2013-05-14 14:16:00,53.2,20.9,29.92,WNW,296,3.0,3.0,28,0.00,,,0.00,Wunderground v.1.15,2013-05-14 18:16:00,
2013-05-14 14:26:00,53.6,20.4,29.92,WNW,298,4.0,4.0,27,0.00,,,0.00,Wunderground v.1.15,2013-05-14 18:26:00,
2013-05-14 14:36:00,53.2,21.7,29.92,North,355,2.0,17.0,29,0.00,,,0.00,Wunderground v.1.15,2013-05-14 18:36:00,
2013-05-14 14:46:00,53.3,20.1,29.92,NNW,327,3.0,3.0,27,0.00,,,0.00,Wunderground v.1.15,2013-05-14 18:46:00,
2013-05-14 14:56:00,53.1,20.8,29.92,NE,51,2.0,17.0,28,0.00,,,0.00,Wunderground v.1.15,2013-05-14 18:56:00,
2013-05-14 15:06:00,53.8,20.6,29.91,North,5,1.0,9.0,27,0.00,,,0.00,Wunderground v.1.15,2013-05-14 19:06:00,
2013-05-14 15:36:00,56.7,23.0,29.90,ENE,78,2.0,13.0,27,0.00,,,0.00,Wunderground v.1.15,2013-05-14 19:36:00,
2013-05-14 15:46:00,56.6,21.1,29.89,WNW,303,3.0,13.0,25,0.00,,,0.00,Wunderground v.1.15,2013-05-14 19:46:00,
2013-05-14 15:56:00,56.3,20.9,29.89,WNW,298,7.0,13.0,25,0.00,,,0.00,Wunderground v.1.15,2013-05-14 19:56:00,
2013-05-14 17:06:00,53.6,20.4,29.90,WNW,288,6.0,6.0,27,0.00,,,0.00,Wunderground v.1.15,2013-05-14 21:06:00,
2013-05-14 17:16:00,53.8,21.4,29.90,NW,304,5.0,17.0,28,0.00,,,0.00,Wunderground v.1.15,2013-05-14 21:16:00,
2013-05-14 17:26:00,53.6,20.4,29.90,WNW,288,7.0,7.0,27,0.00,,,0.00,Wunderground v.1.15,2013-05-14 21:26:00,
2013-05-14 17:36:00,53.1,21.6,29.90,NW,317,7.0,9.0,29,0.00,,,0.00,Wunderground v.1.15,2013-05-14 21:36:00,
2013-05-14 17:46:00,53.3,20.1,29.90,West,275,6.0,15.0,27,0.00,,,0.00,Wunderground v.1.15,2013-05-14 21:46:00,
2013-05-14 17:56:00,52.2,20.0,29.90,NW,304,8.0,8.0,28,0.00,,,0.00,Wunderground v.1.15,2013-05-14 21:56:00,
2013-05-14 18:06:00,52.9,20.6,29.90,North,355,3.0,17.0,28,0.00,,,0.00,Wunderground v.1.15,2013-05-14 22:06:00,
2013-05-14 18:16:00,52.0,20.7,29.90,NW,306,2.0,2.0,29,0.00,,,0.00,Wunderground v.1.15,2013-05-14 22:16:00,
2013-05-14 18:26:00,51.0,21.4,29.90,NW,307,1.0,1.0,31,0.00,,,0.00,Wunderground v.1.15,2013-05-14 22:26:00,
2013-05-14 19:06:00,49.8,20.3,29.91,NE,41,0.0,9.0,31,0.00,,,0.00,Wunderground v.1.15,2013-05-14 23:06:00,
2013-05-14 19:16:00,49.9,21.2,29.91,NE,41,0.0,9.0,32,0.00,,,0.00,Wunderground v.1.15,2013-05-14 23:16:00,
2013-05-14 19:26:00,49.6,22.3,29.91,NNW,341,1.0,1.0,34,0.00,,,0.00,Wunderground v.1.15,2013-05-14 23:26:00,
2013-05-14 20:06:00,47.7,22.0,29.92,WNW,287,1.0,5.0,36,0.00,,,0.00,Wunderground v.1.15,2013-05-15 00:06:00,
2013-05-14 20:16:00,47.3,21.7,29.92,WNW,284,2.0,2.0,36,0.00,,,0.00,Wunderground v.1.15,2013-05-15 00:16:00,
2013-05-14 20:36:00,46.5,22.8,29.93,WNW,293,2.0,2.0,39,0.00,,,0.00,Wunderground v.1.15,2013-05-15 00:36:00,
2013-05-14 20:46:00,46.4,22.1,29.94,West,281,2.0,2.0,38,0.00,,,0.00,Wunderground v.1.15,2013-05-15 00:46:00,
2013-05-14 20:56:00,46.4,20.9,29.94,WNW,287,1.0,4.0,36,0.00,,,0.00,Wunderground v.1.15,2013-05-15 00:56:00,
2013-05-14 21:06:00,46.4,20.9,29.94,WNW,287,0.0,6.0,36,0.00,,,0.00,Wunderground v.1.15,2013-05-15 01:06:00,
2013-05-14 21:16:00,46.2,22.6,29.94,WNW,287,0.0,6.0,39,0.00,,,0.00,Wunderground v.1.15,2013-05-15 01:16:00,
2013-05-14 21:36:00,44.9,22.6,29.95,WNW,287,0.0,3.0,41,0.00,,,0.00,Wunderground v.1.15,2013-05-15 01:36:00,
2013-05-14 21:46:00,44.3,24.3,29.95,WNW,287,0.0,3.0,45,0.00,,,0.00,Wunderground v.1.15,2013-05-15 01:46:00,
2013-05-14 21:56:00,43.6,25.2,29.95,SSW,206,0.0,3.0,48,0.00,,,0.00,Wunderground v.1.15,2013-05-15 01:56:00,
2013-05-14 22:06:00,42.9,26.0,29.95,SSW,206,0.0,3.0,51,0.00,,,0.00,Wunderground v.1.15,2013-05-15 02:06:00,
2013-05-14 22:16:00,42.3,25.9,29.95,SSW,206,1.0,1.0,52,0.00,,,0.00,Wunderground v.1.15,2013-05-15 02:16:00,
2013-05-14 22:26:00,41.5,27.0,29.95,SSW,206,0.0,3.0,56,0.00,,,0.00,Wunderground v.1.15,2013-05-15 02:26:00,
2013-05-14 22:36:00,41.2,26.2,29.95,SSW,206,0.0,3.0,55,0.00,,,0.00,Wunderground v.1.15,2013-05-15 02:36:00,
2013-05-14 22:46:00,40.8,26.3,29.96,SSW,206,0.0,2.0,56,0.00,,,0.00,Wunderground v.1.15,2013-05-15 02:46:00,
2013-05-14 22:56:00,40.2,27.0,29.96,SSW,206,1.0,2.0,59,0.00,,,0.00,Wunderground v.1.15,2013-05-15 02:56:00,
2013-05-14 23:36:00,38.6,27.5,29.96,SSE,148,2.0,4.0,64,0.00,,,0.00,Wunderground v.1.15,2013-05-15 03:36:00,